Weather History for KLAS - January, 2013

Change the Weather History Date:

Saturday, January 12, 2013

  Actual Average Record
Temperature  
Mean Temperature 35 °F 48 °F  
Max Temperature 42 °F 58 °F 71 °F (1980)
Min Temperature 28 °F 39 °F 14 °F (1963)
Degree Days  
Heating Degree Days 30 17  
Month to date heating degree days 259 206  
Since 1 July heating degree days 932 1053  
Cooling Degree Days 0 0  
Month to date cooling degree days 0 0  
Year to date cooling degree days 0 0  
Moisture  
Dew Point 4 °F    
Average Humidity 30    
Maximum Humidity 42    
Minimum Humidity 17    
Precipitation  
Precipitation 0.00 in 0.02 in 0.65 in (1949)
Month to date precipitation 0.00 0.23  
Year to date precipitation 0.00 0.23  
Snow  
Snow 0.00 in 0.00 in 4.70 in (1949)
Month to date snowfall 0.0 0.0  
Since 1 July snowfall T 0.2  
Snow Depth 0.00 in    
Sea Level Pressure  
Sea Level Pressure 30.07 in    
Wind  
Wind Speed 5 mph (SSW)    
Max Wind Speed 14 mph    
Max Gust Speed 17 mph    
Visibility 10 miles    
Events      
T = Trace of Precipitation, MM = Missing Value Source: NWS Daily Summary

Daily Weather History Graph

Daily Weather History Graph

Search for Another Location

Airport or City:

Trip Planner

Search our weather history database for the weather conditions in past years. The results will help you decide how hot, cold, wet, or windy it might be!

Date:

Astronomy

Jan. 12, 2013 Rise Set
Actual Time 6:51 AM PST 4:47 PM PST
Civil Twilight 6:23 AM PST 5:15 PM PST
Nautical Twilight 5:51 AM PST 5:46 PM PST
Astronomical Twilight 5:20 AM PST 6:17 PM PST
Moon 7:16 AM PST (1/12) 6:17 PM PST (1/12)
Length of Visible Light 10h 52m
Length of Day
9h 55m
New Moon, 2% of the Moon is Illuminated
Jan 12
New Moon
Jan 18
First Quarter
Jan 26
Full
Feb 3
Last Quarter
Feb 9
New

Hourly Weather History & Observations

Time (PST) Temp. Windchill Dew Point Humidity Pressure Visibility Wind Dir Wind Speed Gust Speed Precip Events Conditions
12:56 AM 36.0 °F 28.5 °F 6.1 °F 29% 30.00 in 10.0 mi NW 10.4 mph - N/A   Clear
1:56 AM 35.1 °F 28.6 °F 8.1 °F 33% 30.01 in 10.0 mi NW 8.1 mph - N/A   Partly Cloudy
2:56 AM 30.0 °F 21.7 °F 8.1 °F 40% 30.03 in 10.0 mi South 9.2 mph - N/A   Scattered Clouds
3:56 AM 34.0 °F 28.0 °F 7.0 °F 32% 30.01 in 10.0 mi West 6.9 mph - N/A   Partly Cloudy
4:56 AM 32.0 °F 28.7 °F 7.0 °F 35% 30.02 in 10.0 mi Variable 3.5 mph - N/A   Partly Cloudy
5:56 AM 33.1 °F 26.9 °F 3.9 °F 29% 30.06 in 10.0 mi NW 6.9 mph - N/A   Clear
6:56 AM 28.9 °F 20.4 °F 8.1 °F 41% 30.09 in 10.0 mi SSW 9.2 mph - N/A   Clear
7:56 AM 28.9 °F 19.2 °F 9.0 °F 43% 30.11 in 10.0 mi SSW 11.5 mph - N/A   Clear
8:56 AM 33.1 °F 26.1 °F 7.0 °F 34% 30.12 in 10.0 mi South 8.1 mph - N/A   Partly Cloudy
9:56 AM 35.1 °F 31.0 °F 6.1 °F 30% 30.12 in 10.0 mi SSW 4.6 mph - N/A   Partly Cloudy
10:56 AM 39.0 °F 34.0 °F 3.9 °F 23% 30.10 in 10.0 mi Variable 6.9 mph - N/A   Clear
11:56 AM 39.9 °F 33.9 °F 1.0 °F 20% 30.07 in 10.0 mi NE 9.2 mph - N/A   Partly Cloudy
12:56 PM 41.0 °F 37.1 °F 1.0 °F 19% 30.05 in 10.0 mi Variable 5.8 mph - N/A   Partly Cloudy
1:56 PM 42.1 °F - 1.0 °F 18% 30.04 in 10.0 mi Calm Calm - N/A   Partly Cloudy
2:56 PM 41.0 °F - -0.0 °F 18% 30.06 in 10.0 mi Calm Calm - N/A   Clear
3:56 PM 41.0 °F - -0.9 °F 17% 30.05 in 10.0 mi Calm Calm - N/A   Clear
4:56 PM 39.0 °F 36.8 °F -2.0 °F 18% 30.05 in 10.0 mi Variable 3.5 mph - N/A   Clear
5:56 PM 37.9 °F 32.1 °F -0.0 °F 20% 30.06 in 10.0 mi South 8.1 mph - N/A   Clear
6:56 PM 37.0 °F 33.3 °F 1.9 °F 23% 30.09 in 10.0 mi SSE 4.6 mph - N/A   Clear
7:56 PM 36.0 °F - 1.9 °F 24% 30.09 in 10.0 mi Calm Calm - N/A   Clear
8:56 PM 35.1 °F 31.0 °F -0.0 °F 23% 30.10 in 10.0 mi NE 4.6 mph - N/A   Clear
10:56 PM 32.0 °F - 3.0 °F 29% 30.11 in 10.0 mi Calm Calm - N/A   Clear
11:56 PM 30.9 °F 27.5 °F 3.0 °F 31% 30.12 in 10.0 mi ENE 3.5 mph - N/A   Scattered Clouds